Weather History for KSUN - August, 2013

Change the Weather History Date:

Sunday, August 18, 2013

  Actual Average Record
Temperature  
Mean Temperature 74 °F -  
Max Temperature 89 °F 80 °F 93 °F (1999)
Min Temperature 59 °F 50 °F 39 °F (1996)
Cooling Degree Days 9    
Growing Degree Days 24 (Base 50)    
Moisture  
Dew Point 35 °F    
Average Humidity 29    
Maximum Humidity 42    
Minimum Humidity 14    
Precipitation  
Precipitation 0.00 in - - ()
Sea Level Pressure  
Sea Level Pressure 30.15 in    
Wind  
Wind Speed 10 mph (NW)    
Max Wind Speed 17 mph    
Max Gust Speed 23 mph    
Visibility 3 miles    
Events      
Averages and records for this station are not official NWS values.
T = Trace of Precipitation, MM = Missing Value Source: NWS Daily Summary

Daily Weather History Graph

Daily Weather History Graph

Search for Another Location

Airport or City:

Trip Planner

Search our weather history database for the weather conditions in past years. The results will help you decide how hot, cold, wet, or windy it might be!

Date:

Astronomy

Aug. 18, 2013 Rise Set
Actual Time 6:45 AM MDT 8:35 PM MDT
Civil Twilight 6:15 AM MDT 9:05 PM MDT
Nautical Twilight 5:37 AM MDT 9:43 PM MDT
Astronomical Twilight 4:57 AM MDT 10:23 PM MDT
Moon 6:46 PM MDT (8/18) 3:57 AM MDT (8/18)
Length of Visible Light 14h 50m
Length of Day
13h 49m
Waxing Gibbous, 92% of the Moon is Illuminated
Aug 18
Waxing Gibbous
Aug 20
Full
Aug 28
Last Quarter
Sep 5
New
Sep 12
First Quarter

Hourly Weather History & Observations

Time (MDT) Temp. Dew Point Humidity Pressure Visibility Wind Dir Wind Speed Gust Speed Precip Events Conditions
12:15 AM 68.0 °F 33.8 °F 28% 30.13 in 5.0 mi NW 9.2 mph - N/A   Haze
12:35 AM 66.2 °F 33.8 °F 30% 30.14 in 5.0 mi NW 10.4 mph - N/A   Haze
12:55 AM 66.2 °F 35.6 °F 32% 30.14 in 5.0 mi NW 10.4 mph - N/A   Haze
1:15 AM 66.2 °F 33.8 °F 30% 30.14 in 5.0 mi North 11.5 mph - N/A   Haze
1:35 AM 66.2 °F 32.0 °F 28% 30.14 in 4.0 mi NNW 11.5 mph - N/A   Haze
1:55 AM 66.2 °F 33.8 °F 30% 30.14 in 3.0 mi NW 10.4 mph - N/A   Haze
2:15 AM 64.4 °F 32.0 °F 30% 30.14 in 2.5 mi WNW 11.5 mph - N/A   Haze
2:35 AM 64.4 °F 33.8 °F 32% 30.14 in 2.5 mi WNW 12.7 mph - N/A   Haze
2:55 AM 64.4 °F 32.0 °F 30% 30.14 in 2.5 mi NW 9.2 mph - N/A   Haze
3:15 AM 64.4 °F 32.0 °F 30% 30.14 in 2.0 mi NW 9.2 mph - N/A   Haze
3:35 AM 64.4 °F 32.0 °F 30% 30.14 in 2.0 mi NNW 9.2 mph - N/A   Haze
3:55 AM 62.6 °F 32.0 °F 32% 30.14 in 1.8 mi NW 11.5 mph - N/A   Haze
4:15 AM 60.8 °F 32.0 °F 34% 30.14 in 1.8 mi NW 9.2 mph - N/A   Haze
4:35 AM 60.8 °F 32.0 °F 34% 30.15 in 1.8 mi NW 11.5 mph - N/A   Haze
4:55 AM 60.8 °F 32.0 °F 34% 30.15 in 1.8 mi NW 11.5 mph - N/A   Haze
5:15 AM 60.8 °F 32.0 °F 34% 30.15 in 1.8 mi NW 11.5 mph - N/A   Haze
5:35 AM 60.8 °F 32.0 °F 34% 30.15 in 1.5 mi NW 10.4 mph - N/A   Haze
5:55 AM 59.0 °F 32.0 °F 36% 30.15 in 1.5 mi NW 12.7 mph 18.4 mph N/A   Haze
6:15 AM 59.0 °F 32.0 °F 36% 30.16 in 1.5 mi NW 15.0 mph - N/A   Haze
6:35 AM 59.0 °F 32.0 °F 36% 30.17 in 1.5 mi NW 11.5 mph - N/A   Haze
6:47 AM 59.0 °F 33.8 °F 39% 30.18 in 1.0 mi NNW 10.4 mph - N/A   Smoke
6:55 AM 59.0 °F 32.0 °F 36% 30.18 in 1.5 mi NW 11.5 mph - N/A   Haze
7:50 AM 59.0 °F 35.6 °F 42% 30.21 in 1.0 mi WNW 6.9 mph - N/A   Smoke
8:50 AM 64.4 °F 37.4 °F 37% 30.21 in 1.0 mi NW 9.2 mph - N/A   Smoke
9:47 AM 66.2 °F 37.4 °F 35% 30.21 in 1.0 mi NNW 11.5 mph - N/A   Smoke
10:47 AM 73.4 °F 41.0 °F 31% 30.21 in 1.0 mi Calm Calm - N/A   Smoke
11:10 AM 77.0 °F 44.6 °F 32% 30.21 in 3.0 mi ESE 5.8 mph - N/A   Smoke
11:50 AM 82.4 °F 39.2 °F 21% 30.20 in 3.0 mi SE 10.4 mph - N/A   Smoke
12:50 PM 87.8 °F 39.2 °F 18% 30.18 in 3.0 mi SE 10.4 mph - N/A   Smoke
1:47 PM 87.8 °F 44.6 °F 22% 30.16 in 5.0 mi SE 17.3 mph 23.0 mph N/A   Smoke
3:50 PM 89.6 °F 33.8 °F 14% 30.13 in 5.0 mi WNW 13.8 mph 19.6 mph N/A   Smoke
4:55 PM 89.6 °F 35.6 °F 15% 30.11 in 5.0 mi WSW 8.1 mph 16.1 mph N/A   Smoke
5:55 PM 87.8 °F 33.8 °F 15% 30.10 in 5.0 mi SW 10.4 mph 20.7 mph N/A   Smoke
6:55 PM 87.8 °F 35.6 °F 16% 30.09 in 3.0 mi SW 4.6 mph - N/A   Smoke
7:55 PM 87.8 °F 35.6 °F 16% 30.09 in 5.0 mi WNW 6.9 mph - N/A   Smoke
8:50 PM 84.2 °F 33.8 °F 16% 30.11 in 5.0 mi West 8.1 mph - N/A   Smoke
9:50 PM 80.6 °F 30.2 °F 16% 30.13 in 5.0 mi Calm Calm - N/A   Smoke
10:50 PM 71.6 °F 33.8 °F 25% 30.15 in 5.0 mi WNW 9.2 mph - N/A   Smoke
11:15 PM 69.8 °F 35.6 °F 28% 30.15 in 7.0 mi NW 11.5 mph - N/A   Clear
11:35 PM 69.8 °F 33.8 °F 27% 30.16 in 7.0 mi NW 10.4 mph - N/A   Clear
11:55 PM 68.0 °F 35.6 °F 30% 30.17 in 5.0 mi NW 8.1 mph - N/A   Haze